TimePDT,TemperatureF,Dew PointF,Humidity,Sea Level PressureIn,VisibilityMPH,Wind Direction,Wind SpeedMPH,Gust SpeedMPH,PrecipitationIn,Events,Conditions,WindDirDegrees,DateUTC
12:48 AM,39.2,37.4,93,30.29,1.8,Calm,Calm,-,N/A,,Clear,0,2012-10-05 07:48:00
12:53 AM,39.9,37.9,93,30.31,1.5,Calm,Calm,-,N/A,,Clear,0,2012-10-05 07:53:00
12:56 AM,39.2,37.4,93,30.28,3.0,Calm,Calm,-,N/A,,Clear,0,2012-10-05 07:56:00
1:53 AM,37.0,36.0,96,30.32,6.0,Calm,Calm,-,N/A,,Clear,0,2012-10-05 08:53:00
2:08 AM,37.4,35.6,93,30.30,1.5,Calm,Calm,-,N/A,,Clear,0,2012-10-05 09:08:00
2:20 AM,37.4,35.6,93,30.29,5.0,Calm,Calm,-,N/A,,Clear,0,2012-10-05 09:20:00
2:53 AM,37.9,35.1,89,30.32,10.0,Calm,Calm,-,N/A,,Clear,0,2012-10-05 09:53:00
3:53 AM,37.0,33.1,86,30.31,10.0,Calm,Calm,-,N/A,,Clear,0,2012-10-05 10:53:00
4:53 AM,35.1,33.1,92,30.32,10.0,Calm,Calm,-,N/A,,Clear,0,2012-10-05 11:53:00
5:53 AM,36.0,32.0,86,30.32,10.0,Calm,Calm,-,N/A,,Clear,0,2012-10-05 12:53:00
6:53 AM,35.1,32.0,89,30.32,10.0,North,3.5,-,N/A,,Clear,350,2012-10-05 13:53:00
7:53 AM,37.0,33.1,86,30.33,10.0,Calm,Calm,-,N/A,,Clear,0,2012-10-05 14:53:00
8:53 AM,46.4,37.4,71,30.32,10.0,Calm,Calm,-,N/A,,Clear,0,2012-10-05 15:53:00
9:53 AM,55.0,37.9,53,30.34,10.0,Calm,Calm,-,N/A,,Clear,0,2012-10-05 16:53:00
10:53 AM,63.0,34.0,34,30.34,10.0,NNE,10.4,16.1,N/A,,Clear,20,2012-10-05 17:53:00
11:53 AM,66.9,32.0,27,30.32,10.0,NNE,11.5,18.4,N/A,,Clear,20,2012-10-05 18:53:00
12:53 PM,69.1,30.9,24,30.31,10.0,NNE,10.4,18.4,N/A,,Clear,30,2012-10-05 19:53:00
1:53 PM,70.0,30.9,24,30.30,10.0,NNE,9.2,-,N/A,,Clear,20,2012-10-05 20:53:00
2:53 PM,72.0,30.9,22,30.28,10.0,North,10.4,17.3,N/A,,Clear,360,2012-10-05 21:53:00
3:53 PM,72.0,30.9,22,30.27,10.0,Variable,4.6,-,N/A,,Clear,0,2012-10-05 22:53:00
4:53 PM,66.0,43.0,43,30.26,10.0,West,6.9,-,N/A,,Clear,270,2012-10-05 23:53:00
5:53 PM,62.1,42.1,48,30.26,10.0,West,5.8,-,N/A,,Clear,280,2012-10-06 00:53:00
6:53 PM,59.0,39.0,48,30.25,10.0,WNW,6.9,-,N/A,,Clear,290,2012-10-06 01:53:00
7:53 PM,51.1,39.9,66,30.26,10.0,Calm,Calm,-,N/A,,Clear,0,2012-10-06 02:53:00
8:53 PM,45.0,37.9,76,30.26,10.0,Calm,Calm,-,N/A,,Clear,0,2012-10-06 03:53:00
9:53 PM,45.0,37.0,74,30.25,10.0,Calm,Calm,-,N/A,,Clear,0,2012-10-06 04:53:00
10:53 PM,44.1,37.9,79,30.26,10.0,Calm,Calm,-,N/A,,Clear,0,2012-10-06 05:53:00
11:53 PM,42.1,39.0,89,30.27,10.0,Calm,Calm,-,N/A,,Clear,0,2012-10-06 06:53:00